TimeCDT,TemperatureF,Dew PointF,Humidity,Sea Level PressureIn,VisibilityMPH,Wind Direction,Wind SpeedMPH,Gust SpeedMPH,PrecipitationIn,Events,Conditions,WindDirDegrees,DateUTC
12:53 AM,69.1,64.0,84,30.02,7.0,South,8.1,-,N/A,,Clear,170,2013-08-21 05:53:00
1:53 AM,69.1,64.0,84,30.01,10.0,South,8.1,-,N/A,,Clear,190,2013-08-21 06:53:00
2:53 AM,66.0,62.1,87,30.01,10.0,South,8.1,-,N/A,,Clear,180,2013-08-21 07:53:00
3:53 AM,66.9,62.1,84,30.01,6.0,South,8.1,-,N/A,,Haze,170,2013-08-21 08:53:00
4:53 AM,66.9,62.1,84,30.00,10.0,South,9.2,-,N/A,,Clear,170,2013-08-21 09:53:00
5:53 AM,66.0,62.1,87,30.01,10.0,South,8.1,-,N/A,,Partly Cloudy,170,2013-08-21 10:53:00
6:53 AM,66.0,61.0,84,30.03,10.0,South,8.1,-,N/A,,Partly Cloudy,180,2013-08-21 11:53:00
7:53 AM,70.0,63.0,78,30.05,10.0,South,8.1,-,N/A,,Mostly Cloudy,190,2013-08-21 12:53:00
8:53 AM,75.0,64.0,69,30.06,10.0,South,8.1,-,N/A,,Mostly Cloudy,190,2013-08-21 13:53:00
9:53 AM,78.1,64.9,64,30.06,10.0,SSW,10.4,-,N/A,,Partly Cloudy,200,2013-08-21 14:53:00
10:53 AM,82.0,66.0,58,30.06,10.0,SSW,11.5,-,N/A,,Partly Cloudy,210,2013-08-21 15:53:00
11:53 AM,84.9,66.9,55,30.04,10.0,SSW,10.4,-,N/A,,Scattered Clouds,200,2013-08-21 16:53:00
12:53 PM,87.1,66.0,49,30.04,10.0,South,11.5,-,N/A,,Mostly Cloudy,180,2013-08-21 17:53:00
1:53 PM,87.1,66.9,51,30.03,10.0,South,10.4,-,N/A,,Overcast,180,2013-08-21 18:53:00
2:53 PM,89.1,66.0,46,30.01,10.0,SSW,11.5,-,N/A,,Overcast,200,2013-08-21 19:53:00
3:53 PM,89.1,66.0,46,30.00,8.0,South,9.2,-,N/A,,Overcast,190,2013-08-21 20:53:00
4:53 PM,88.0,66.9,49,29.99,10.0,South,10.4,-,N/A,,Mostly Cloudy,190,2013-08-21 21:53:00
5:53 PM,87.1,68.0,53,29.99,10.0,South,8.1,-,N/A,,Mostly Cloudy,190,2013-08-21 22:53:00
6:53 PM,82.9,70.0,65,29.99,10.0,South,5.8,-,N/A,,Scattered Clouds,190,2013-08-21 23:53:00
7:53 PM,78.1,69.1,74,29.98,10.0,South,6.9,-,N/A,,Scattered Clouds,180,2013-08-22 00:53:00
8:53 PM,73.0,66.9,81,29.99,10.0,South,6.9,-,N/A,,Clear,180,2013-08-22 01:53:00
9:53 PM,73.9,66.0,76,30.00,10.0,SSE,6.9,-,N/A,,Clear,160,2013-08-22 02:53:00
10:53 PM,73.0,66.0,79,30.00,10.0,SSE,6.9,-,N/A,,Clear,160,2013-08-22 03:53:00
11:53 PM,72.0,66.0,81,30.01,10.0,SSE,6.9,-,N/A,,Scattered Clouds,160,2013-08-22 04:53:00